カタログに戻る

SL-8 R/B

運用中PO
NORAD 14966·ROCKET BODY·🇷🇺 Russia

打ち上げ May 11, 1984 から Plesetsk Cosmodrome

Loading…

次のパス (今後24時間)

TLE

最新Source: Space-Track

元期: Sep 14, 2026, 21:07 UTC

1 14966U 84043B   26257.88020788  .00000102  00000-0  90832-4 0  9997
2 14966  82.9724 123.6969 0016427   7.6211   8.3202 13.74892917123623

AllMySatでSL-8 R/Bをリアルタイム追跡

Download on the App Store